STARLINK-11290, 61000

Orbit data source: Space-Track

STARLINK-11290, 61000 is a payload satellite owned by SpaceX/Seattle (US) in LEO that was launched on Thu, 05 Sep 2024 UTC via an FALCON 9 launch vehicle from the Air Force Eastern Test Range (AFETR). Payloads include a variety of satellites, spacecraft, and rockets equipped with specific instruments for various scientific and technological missions. These include communications satellites like Starlink; space stations such as the ISS; scientific satellites like the Hubble; Earth observation satellites from companies like Planet Labs, Umbra, and HawkEye 360; GPS; miniature CubeSats for education and research; and military/defense satellites.

Loading next visibility...
STARLINK-11290 details
Identifier
61000, 2024-158L
Orbit
LEO
Last TLE update15 hours ago
Origin
Flag of USSpaceX/Seattle (US)
ManufacturerSpaceX/Seattle
MissionOperational spacecraft
Bus & MotorSTARLINK V2M, Unknown motor
Mass730 kg wet, ~700 kg dry
Launch date (UTC)
2024-09-05 (4 months ago)
Launch vehicle
FALCON 9
Launch site
Air Force Eastern Test Range (AFETR)
Object type
Payload
Rocket body
Debris
Shape & HBRUnknown
Radar Cross SectionLarge (>1 m²)

Expand to show TLE details & history

TLE from 15 hours ago
0 STARLINK-11290
1 61000U 24158L   24355.90948564  .00002840  00000-0  28310-4 0  9993
2 61000  53.1598 308.9583 0002000  96.2425 263.8821 15.69703600 17955
Epoch: 2024-12-20T21:49Z
Definitive object data (Epoch: 2024-12-20T21:49:39.559Z)
Latitude0.00001°
Longitude-108.42476°
Altitude360.804 km
Speed7.694 km/s
True Right ascension20h 35m 49s
True Declination0° 00' 00"
Sunlit
Object was in daylight at TLE epoch
Visualization TLE readout
Latitude-50.35075°
Longitude132.55184°
Altitude378.33 km
Speed7.682 km/s
Apparent Right ascension19h 54m 50s
Apparent Declination-81° 57' 32"
Sunlit
Object is in daylight
Visualization observer readout
Local Sidereal Time11:41:13
Azimuth170.66° S
Elevation-43.981°
Doppler factor1
Orbital elements
Apogee altitude361.353 km
Perigee altitude358.658 km
Semi-major axis6,738.143 km
Eccentricity0.0002
Inclination53.1598°
RAAN308.9583°
Arg. of periapsis96.2425°
True anomaly263.85931°
Mean anomaly263.8821°
Eccentric anomaly263.87071°
Mean motion3.92403 °/min
BSTAR0.00002831
Orbital period91.74 mins
Loading maneuver chart data...
Loading historical data...
Loading historical data...
Loading historical data...
Loading historical data...
Loading historical data...
Loading historical data...
Loading historical data...

STARLINK-11290 Visibility forecast

Observer location: undefined°, undefined

Span
Click to sort rows by Start time (UTC) header in descending order
Start Az.
Max El. time (UTC)
Max El. Az.
Max El.
End time (UTC)
End Az.
4 mins2024-12-22 06:25:23.149Z312.082° NW2024-12-22 06:27:23.149Z110.596° ESE44.01°2024-12-22 06:29:23.149Z128.597° SE
|